Epoch 2006 Aug. 13.0 TT = JDT 2453960.5
T 2006 Aug. 18.52615 TT MPCW
q 2.6320420 (2000.0) P Q
n 0.09320795 Peri. 313.94832 -0.25637838 +0.92583169
a 4.8176372 Node 299.25113 -0.77039177 -0.36922791
e 0.4536654 Incl. 18.55786 -0.58375221 +0.08066250
P 10.57
From 144 observations 2006 Apr. 5-2017 May 5, mean residual 0".5.